Weather History for KCKV - November, 2012

Change the Weather History Date:

Monday, November 19, 2012

  Actual Average Record
Temperature  
Mean Temperature 50 °F -  
Max Temperature 67 °F 61 °F 78 °F (1953)
Min Temperature 32 °F 37 °F 18 °F (1951)
Degree Days  
Heating Degree Days 15    
Month to date heating degree days 334  
Moisture  
Dew Point 34 °F    
Average Humidity 59    
Maximum Humidity 89    
Minimum Humidity 29    
Precipitation  
Precipitation 0.00 in - - ()
Month to date precipitation 1.25  
Sea Level Pressure  
Sea Level Pressure 30.27 in    
Wind  
Wind Speed 1 mph (ENE)    
Max Wind Speed 6 mph    
Max Gust Speed 8 mph    
Visibility 10 miles    
Events      
Averages and records for this station are not official NWS values.
T = Trace of Precipitation, MM = Missing Value Source: NWS Daily Summary

Daily Weather History Graph

Daily Weather History Graph

Search for Another Location

Airport or City:

Trip Planner

Search our weather history database for the weather conditions in past years. The results will help you decide how hot, cold, wet, or windy it might be!

Date:

Astronomy

Nov. 19, 2012 Rise Set
Actual Time 6:32 AM CST 4:38 PM CST
Civil Twilight 6:04 AM CST 5:05 PM CST
Nautical Twilight 5:32 AM CST 5:37 PM CST
Astronomical Twilight 5:02 AM CST 6:08 PM CST
Moon 11:38 AM CST (11/19) 11:00 PM CST (11/19)
Length of Visible Light 11h 01m
Length of Day
10h 05m
Waxing Crescent, 41% of the Moon is Illuminated
Nov 19
Waxing Crescent
Nov 20
First Quarter
Nov 28
Full
Dec 6
Last Quarter
Dec 13
New

Hourly Weather History & Observations

Time (CST) Temp. Dew Point Humidity Pressure Visibility Wind Dir Wind Speed Gust Speed Precip Events Conditions
12:52 AM 36.0 °F 30.9 °F 82% 30.34 in 10.0 mi Calm Calm - N/A   Clear
1:52 AM 35.1 °F 30.9 °F 85% 30.34 in 10.0 mi Calm Calm - N/A   Clear
2:52 AM 33.1 °F 30.0 °F 89% 30.33 in 10.0 mi Calm Calm - N/A   Clear
3:52 AM 33.1 °F 30.0 °F 89% 30.32 in 9.0 mi Calm Calm - N/A   Clear
4:52 AM 34.0 °F 30.9 °F 89% 30.33 in 7.0 mi Calm Calm - N/A   Clear
5:52 AM 33.1 °F 30.0 °F 89% 30.33 in 8.0 mi Calm Calm - N/A   Clear
6:52 AM 33.1 °F 30.9 °F 92% 30.33 in 6.0 mi Calm Calm - N/A   Clear
7:52 AM 37.0 °F 33.1 °F 86% 30.34 in 8.0 mi Calm Calm - N/A   Clear
8:52 AM 43.0 °F 37.0 °F 80% 30.35 in 9.0 mi Calm Calm - N/A   Clear
9:52 AM 51.1 °F 37.9 °F 61% 30.35 in 10.0 mi Calm Calm - N/A   Clear
10:52 AM 57.9 °F 37.0 °F 46% 30.33 in 10.0 mi Calm Calm - N/A   Clear
11:52 AM 64.0 °F 36.0 °F 35% 30.29 in 10.0 mi Calm Calm - N/A   Clear
12:52 PM 64.9 °F 34.0 °F 32% 30.26 in 10.0 mi Calm Calm - N/A   Clear
1:52 PM 64.9 °F 33.1 °F 31% 30.24 in 10.0 mi East 3.5 mph - N/A   Clear
2:52 PM 66.0 °F 33.1 °F 29% 30.22 in 10.0 mi Calm Calm - N/A   Clear
3:52 PM 63.0 °F 34.0 °F 34% 30.21 in 10.0 mi NE 4.6 mph - N/A   Clear
4:52 PM 61.0 °F 33.1 °F 35% 30.20 in 10.0 mi ENE 3.5 mph - N/A   Clear
5:52 PM 60.1 °F 33.1 °F 36% 30.20 in 10.0 mi Calm Calm - N/A   Overcast
6:52 PM 57.9 °F 35.1 °F 42% 30.21 in 10.0 mi Calm Calm - N/A   Overcast
7:52 PM 55.9 °F 36.0 °F 47% 30.22 in 10.0 mi Calm Calm - N/A   Overcast
8:52 PM 55.0 °F 37.0 °F 51% 30.21 in 10.0 mi Calm Calm - N/A   Overcast
9:52 PM 54.0 °F 37.0 °F 53% 30.19 in 10.0 mi Calm Calm - N/A   Overcast
10:52 PM 53.1 °F 39.0 °F 59% 30.18 in 10.0 mi Calm Calm - N/A   Overcast
11:52 PM 52.0 °F 37.9 °F 59% 30.17 in 10.0 mi Calm Calm - N/A   Overcast